Wetbulb
74.19 76.27 75.93 76.51 77.17 78.86 78.68 78.81 79.39 79.32 79.09 79.14 79.06 78.43 79.12 78.96 79.01 78.93 79.35 79.95 79.37 79.44 78.78 78.20 78.17 78.31 78.30 78.30 77.96 77.66 77.22 77.03 76.99 76.80 77.36 76.62 75.64 74.96 74.78 74.88 74.79 74.37 74.87
75.91 76.58 77.41 77.40 78.44 79.35 79.11 79.20 79.11 79.01 78.90 79.19 78.93 78.94 78.97 79.07 78.26 78.34 78.75 79.20 79.24 78.81 77.95 78.09 78.12 78.04 78.24 78.20 77.91 77.62 77.62 77.42 77.20 76.90 76.82 76.32 76.08 75.32 75.59 74.88 74.96 75.30 74.90
75.12 76.69 77.09 78.69 79.17 79.08 79.21 78.83 78.87 78.73 79.06 79.25 79.30 79.16 78.96 78.96 78.52 78.55 79.00 78.75 78.70 78.20 77.99 77.87 77.81 77.81 77.56 77.58 77.66 77.70 77.58 76.87 76.72 76.82 76.30 75.34 75.55 75.47 76.01 75.39 74.57 75.05 74.86
75.93 76.64 77.45 77.73 78.65 79.09 79.13 79.28 79.25 78.54 78.78 79.38 79.27 79.17 79.28 78.88 78.70 78.68 78.17 78.19 78.28 78.14 77.76 77.51 77.48 77.62 77.21 77.10 77.04 76.62 76.65 76.91 77.12 76.61 75.96 74.93 74.86 75.29 75.26 74.78 74.07 74.39 73.60
76.36 76.93 78.24 78.57 79.10 79.13 78.93 79.35 78.85 78.86 79.18 79.01 78.91 79.10 78.92 78.67 78.62 78.26 77.92 77.98 77.90 77.62 77.59 77.48 77.37 77.23 76.76 76.60 76.37 76.07 75.51 76.09 76.23 75.93 75.86 76.16 76.16 74.97 75.53 75.08 73.98 74.84 73.88
77.79 78.37 77.41 78.08 79.14 79.36 79.69 78.94 78.37 78.42 79.11 79.45 79.36 79.07 78.54 78.04 78.04 77.96 77.93 77.90 77.62 77.43 77.29 77.10 76.98 76.65 76.18 76.21 76.25 75.87 75.79 75.73 74.99 76.24 76.68 75.36 76.11 75.75 75.39 75.29 73.88 74.51 74.14
76.78 78.22 78.43 78.77 79.30 79.04 79.75 78.71 78.83 78.26 78.48 79.07 78.74 78.00 77.98 77.82 77.68 77.60 77.21 77.16 77.10 77.04 76.79 76.73 76.57 76.31 76.31 75.95 76.11 75.92 75.62 75.29 76.48 77.08 76.55 75.96 76.70 76.24 75.26 75.50 74.30 73.08 73.92
77.17 78.06 78.63 78.23 78.97 79.36 78.84 78.42 79.47 79.16 78.60 79.06 78.64 77.92 77.85 77.74 77.51 77.26 76.91 76.96 76.71 76.40 76.21 76.15 76.13 75.98 76.13 76.32 76.20 76.18 76.24 75.79 75.78 75.72 76.67 77.54 76.36 75.79 75.48 74.62 75.13 73.08 72.70
77.10 77.15 78.25 78.41 78.78 78.74 78.98 78.58 79.11 79.18 78.59 78.69 78.24 77.98 77.67 77.75 77.53 77.21 77.04 76.49 76.15 75.92 75.95 76.12 76.43 75.93 75.92 76.48 76.73 76.32 75.41 76.20 76.61 76.53 75.59 76.58 76.46 76.06 75.59 75.15 75.10 73.68 73.81
76.11 76.05 77.11 77.84 78.07 78.49 78.30 78.38 77.98 78.06 78.15 77.87 77.75 77.72 77.74 77.67 77.34 77.54 76.95 77.10 76.63 76.48 76.98 77.07 77.63 76.60 76.29 75.93 75.88 76.15 76.23 76.15 76.11 77.00 75.79 76.17 76.93 76.02 75.48 75.63 74.62 74.77 73.46
75.49 76.57 77.54 77.51 77.94 78.30 78.14 78.00 77.90 77.74 77.64 77.35 77.38 77.29 77.46 76.63 77.75 77.58 78.08 76.71 76.57 76.93 76.99 77.13 77.29 77.37 76.75 76.70 75.79 75.29 75.65 75.95 76.86 77.28 77.08 75.18 76.00 75.78 75.94 75.50 75.01 75.06 74.37
74.52 75.43 76.36 76.97 77.57 78.10 77.28 78.36 77.98 77.32 76.74 76.72 77.19 78.00 77.10 77.64 78.19 77.82 77.74 76.68 77.13 77.26 77.38 77.51 76.65 76.89 75.84 75.67 76.54 75.51 75.81 75.86 75.88 76.06 76.57 76.00 75.76 75.45 76.01 75.74 75.77 74.25 75.09
74.67 75.37 76.30 77.20 77.87 77.32 77.22 77.45 77.18 77.24 77.09 77.28 78.42 78.37 78.11 77.67 77.72 77.24 76.59 77.08 77.02 77.33 76.11 76.89 76.71 76.21 75.03 75.32 75.41 75.32 75.01 75.26 75.06 76.89 77.15 75.51 76.06 75.50 75.67 75.80 75.96 75.33 74.10
74.05 74.91 76.40 77.51 77.90 78.17 77.58 76.91 77.02 76.86 77.02 76.64 77.13 78.66 78.60 76.77 76.57 76.37 76.04 76.19 76.36 75.93 75.78 75.92 75.93 75.90 75.90 75.35 75.48 75.49 74.91 75.04 75.08 75.99 77.44 75.99 76.23 75.63 75.42 75.95 76.02 75.20 74.80
73.74 75.07 76.04 77.31 77.43 77.92 78.06 77.00 76.70 76.75 76.23 76.32 76.61 77.27 77.39 76.44 76.17 76.24 76.87 76.29 75.54 75.93 76.09 76.49 75.93 75.76 75.68 74.74 74.79 74.79 74.33 74.59 74.81 75.46 76.10 76.54 76.65 76.31 75.59 76.21 75.97 75.43 74.53
73.87 74.54 76.22 77.14 77.87 77.92 78.60 78.39 78.33 77.22 77.51 76.81 76.34 76.64 77.86 77.29 76.31 75.93 76.49 75.58 75.60 75.90 76.81 76.11 77.37 75.79 75.38 75.15 74.38 74.69 74.45 74.63 75.11 75.61 75.57 76.36 76.39 76.86 76.35 75.86 75.99 75.83 75.09
75.20 75.74 76.04 77.02 77.59 77.23 77.35 78.13 77.82 77.22 76.67 76.27 76.23 77.42 77.63 78.31 77.21 77.62 75.66 75.26 76.20 76.02 75.98 75.81 76.16 75.86 75.25 75.08 74.76 74.81 74.83 74.93 74.99 75.56 75.91 75.62 76.06 76.55 76.99 76.45 77.05 77.04 76.29
76.19 76.68 77.50 77.56 77.31 77.15 77.67 78.50 77.51 77.20 76.87 76.12 75.75 75.93 76.83 77.58 77.49 77.35 74.44 74.84 75.79 76.03 74.96 74.62 76.19 74.23 74.60 74.20 74.12 74.25 74.33 74.48 74.82 75.25 75.52 75.30 75.32 74.93 76.73 77.04 77.15 77.24 76.34
76.22 76.92 77.60 77.98 77.40 77.31 77.92 77.94 77.53 77.81 76.80 76.70 76.48 77.53 77.52 77.54 77.43 77.16 76.53 74.27 75.88 74.42 74.11 73.71 74.05 74.40 74.90 74.67 73.63 73.72 74.13 73.81 74.20 73.99 74.26 74.72 75.41 75.29 75.08 76.53 76.48 76.91 76.38
77.30 77.84 77.85 77.56 78.04 78.50 77.95 78.31 79.42 79.05 80.04 79.94 79.10 77.06 77.64 77.37 77.01 77.01 75.73 75.68 75.82 74.20 73.40 73.42 74.56 74.56 73.93 73.41 72.78 72.36 73.05 73.52 73.78 73.59 73.62 74.32 74.74 74.92 75.28 75.58 76.83 76.17 76.65
76.42 76.81 77.40 77.36 77.83 77.64 76.90 76.46 76.07 75.51 76.48 76.99 76.96 77.67 77.70 77.65 77.42 77.40 77.37 76.12 77.31 75.89 75.03 75.32 74.84 73.34 72.60 73.69 71.65 71.71 72.13 73.06 73.23 73.43 73.52 73.63 74.11 74.34 74.70 75.11 75.11 75.51 75.95
75.92 76.63 77.16 77.57 78.33 78.25 77.49 78.47 77.27 76.38 75.86 76.03 77.30 77.07 76.41 75.91 76.10 75.39 75.40 74.45 74.89 73.86 74.41 74.48 74.86 72.92 71.92 74.01 70.62 70.26 66.93 69.38 71.47 72.86 73.22 72.77 73.41 73.92 73.79 74.58 75.36 75.87 75.76
75.36 76.30 76.82 77.64 77.89 78.36 77.81 77.05 75.10 73.77 74.40 72.38 73.34 72.75 74.76 74.78 74.52 74.45 74.34 74.21 74.23 73.70 72.52 73.69 73.56 72.59 71.00 72.08 73.24 70.35 66.01 65.00 67.68 71.07 72.53 72.63 73.03 73.11 73.71 74.05 74.52 75.13 75.91
75.14 76.68 78.43 78.76 78.25 76.57 74.89 73.65 72.68 69.44 68.78 70.51 71.08 71.50 72.67 73.02 73.13 73.39 73.54 73.54 74.02 73.15 72.70 72.63 72.47 72.27 72.51 70.53 72.30 72.53 72.18 70.41 66.75 65.09 70.58 71.79 72.87 72.51 73.45 73.61 73.57 74.62 75.69
75.97 76.66 76.77 76.12 74.98 74.08 73.59 72.53 69.81 70.01 69.74 70.30 69.86 70.56 71.77 72.06 72.40 72.30 73.10 72.48 72.81 72.17 72.61 71.92 71.55 72.15 72.52 71.38 71.18 71.13 71.10 70.47 71.25 68.56 66.10 67.83 71.37 72.33 72.90 73.52 73.82 73.70 74.56
75.20 74.53 73.32 73.63 73.47 73.20 71.15 70.75 70.60 69.78 69.34 68.32 69.13 68.72 68.63 69.44 70.43 71.89 71.20 71.31 71.57 71.38 71.33 71.25 71.92 71.73 72.61 72.64 71.98 71.99 71.24 69.61 68.65 68.98 67.91 67.57 67.91 69.16 71.85 72.66 72.96 73.38 73.99
MSLP
1014.67 1014.34 1015.43 1015.54 1015.58 1015.67 1015.86 1016.06 1016.16 1016.42 1016.66 1016.86 1017.03 1017.31 1017.56 1017.71 1017.88 1018.15 1018.22 1018.24 1018.37 1018.62 1018.68 1018.62 1018.76 1018.86 1018.91 1018.99 1019.03 1019.07 1019.07 1019.06 1019.11 1019.18 1019.24 1019.40 1019.56 1019.54 1019.62 1019.51 1019.39 1018.98 1019.91
1014.26 1014.71 1015.66 1015.83 1015.81 1016.02 1016.12 1016.44 1016.55 1016.84 1017.06 1017.25 1017.43 1017.69 1018.08 1018.19 1018.23 1018.47 1018.53 1018.49 1018.54 1018.90 1018.92 1018.89 1018.97 1019.16 1019.12 1019.20 1019.29 1019.36 1019.38 1019.39 1019.27 1019.24 1019.40 1019.54 1019.73 1019.71 1019.70 1019.72 1019.45 1019.79 1020.12
1014.46 1014.96 1015.60 1016.09 1016.14 1016.36 1016.50 1016.76 1016.94 1017.20 1017.42 1017.64 1017.81 1018.17 1018.48 1018.48 1018.46 1018.70 1018.56 1018.71 1018.82 1018.94 1019.03 1019.20 1019.18 1019.30 1019.40 1019.54 1019.52 1019.44 1019.52 1019.77 1019.59 1019.48 1019.24 1019.22 1019.34 1019.84 1019.83 1019.94 1020.01 1020.19 1020.37
1014.63 1014.82 1015.51 1016.47 1016.53 1016.66 1016.95 1017.07 1017.41 1017.59 1017.84 1017.99 1018.22 1018.37 1018.66 1018.82 1018.84 1018.94 1018.88 1019.00 1019.25 1019.21 1019.38 1019.45 1019.44 1019.48 1019.60 1019.70 1019.71 1019.55 1019.65 1019.67 1019.72 1019.51 1018.82 1018.70 1018.80 1020.25 1020.05 1020.23 1020.32 1020.50 1020.60
1015.04 1015.38 1016.12 1016.74 1016.88 1017.03 1017.13 1017.43 1017.81 1018.03 1018.24 1018.35 1018.54 1018.71 1018.83 1019.12 1019.01 1019.12 1019.17 1019.23 1019.46 1019.55 1019.71 1019.75 1019.65 1019.64 1019.72 1019.76 1019.80 1019.68 1019.87 1019.83 1019.91 1019.27 1018.68 1018.63 1018.59 1020.01 1020.34 1020.50 1020.63 1020.66 1020.68
1015.13 1015.50 1016.67 1016.84 1017.00 1017.24 1017.53 1017.67 1018.10 1018.32 1018.42 1018.63 1018.85 1019.01 1019.06 1019.27 1019.32 1019.32 1019.45 1019.42 1019.54 1019.75 1019.81 1019.88 1019.82 1019.90 1020.01 1019.91 1019.89 1019.86 1019.93 1019.88 1019.75 1018.83 1018.82 1019.32 1019.22 1020.08 1020.47 1020.49 1020.62 1020.84 1020.96
1015.03 1015.79 1016.51 1017.12 1017.38 1017.46 1017.65 1018.07 1018.30 1018.54 1018.77 1018.97 1019.16 1019.29 1019.40 1019.44 1019.54 1019.58 1019.73 1019.70 1019.75 1019.86 1019.88 1019.92 1019.94 1019.99 1020.10 1020.11 1020.03 1019.90 1019.92 1019.87 1019.33 1019.28 1019.46 1018.52 1019.19 1020.27 1020.49 1020.65 1020.88 1021.09 1021.21
1014.95 1015.70 1016.56 1017.44 1017.54 1017.78 1017.88 1018.25 1018.37 1018.70 1018.92 1019.12 1019.30 1019.49 1019.51 1019.58 1019.72 1019.76 1019.82 1019.86 1019.90 1020.01 1020.03 1020.06 1020.13 1020.11 1020.11 1020.14 1020.22 1020.01 1019.92 1019.85 1019.25 1019.46 1019.07 1018.78 1020.00 1020.39 1020.53 1020.77 1021.00 1021.21 1021.36
1015.08 1015.67 1016.41 1016.99 1017.71 1017.97 1018.13 1018.27 1018.56 1018.90 1019.13 1019.34 1019.50 1019.59 1019.67 1019.73 1019.81 1019.85 1019.91 1019.97 1019.99 1020.07 1020.08 1020.14 1020.13 1020.13 1020.12 1020.19 1020.10 1020.06 1019.74 1019.79 1019.22 1019.12 1019.07 1018.74 1020.04 1020.41 1020.66 1020.89 1021.05 1021.25 1021.43
1015.71 1016.55 1016.59 1016.99 1017.28 1017.58 1018.14 1018.60 1018.71 1019.05 1019.19 1019.47 1019.62 1019.69 1019.74 1019.76 1019.81 1019.82 1019.92 1019.90 1020.00 1020.03 1020.03 1020.06 1019.93 1020.08 1020.08 1020.06 1020.03 1019.99 1019.77 1019.67 1018.77 1018.70 1019.12 1019.13 1019.98 1020.37 1020.67 1020.92 1021.02 1021.26 1021.47
1015.75 1016.04 1016.34 1016.93 1017.23 1017.43 1017.81 1018.41 1018.99 1019.20 1019.38 1019.57 1019.63 1019.74 1019.80 1019.05 1018.99 1019.19 1019.18 1019.80 1020.02 1020.03 1019.98 1019.93 1019.92 1019.98 1020.07 1019.75 1019.69 1019.82 1019.77 1018.35 1018.39 1018.56 1018.61 1019.53 1020.13 1020.30 1020.52 1020.82 1021.00 1021.15 1021.42
1015.68 1016.03 1016.19 1016.28 1016.88 1017.42 1017.37 1018.17 1018.47 1018.56 1018.74 1018.95 1019.06 1019.13 1019.31 1018.75 1018.94 1019.07 1019.31 1019.76 1019.93 1019.88 1019.79 1019.76 1019.90 1019.82 1019.56 1019.02 1018.63 1019.10 1018.51 1018.29 1018.32 1018.30 1018.48 1019.60 1020.04 1020.23 1020.37 1020.73 1020.86 1021.10 1021.32
1015.73 1015.91 1016.18 1016.49 1017.03 1017.30 1017.34 1017.85 1018.02 1018.12 1018.19 1018.59 1019.06 1019.17 1018.91 1018.83 1018.87 1018.81 1018.70 1018.68 1018.75 1019.09 1018.81 1018.60 1018.69 1018.52 1018.72 1018.95 1018.57 1018.44 1018.37 1018.63 1018.18 1018.21 1018.56 1019.51 1019.87 1020.06 1020.27 1020.54 1020.77 1020.94 1021.15
1015.85 1016.11 1016.39 1016.77 1017.21 1017.42 1017.48 1017.81 1017.77 1017.82 1018.14 1018.28 1018.43 1019.11 1019.16 1018.96 1018.85 1019.05 1018.75 1018.73 1019.03 1018.88 1018.95 1018.93 1018.55 1018.88 1018.91 1018.74 1018.85 1018.38 1018.22 1018.18 1018.03 1018.35 1018.31 1019.32 1019.71 1019.86 1020.02 1020.25 1020.41 1020.61 1020.86
1015.78 1016.07 1016.46 1016.73 1017.26 1017.49 1017.84 1017.59 1017.68 1017.78 1017.97 1018.04 1018.33 1018.62 1018.87 1018.66 1018.61 1018.71 1019.30 1018.98 1018.89 1018.71 1018.65 1018.84 1018.50 1018.54 1018.54 1018.51 1018.56 1018.52 1018.31 1018.06 1018.22 1018.02 1017.83 1018.89 1019.38 1019.61 1019.78 1019.79 1019.95 1020.22 1020.50
1015.53 1015.80 1016.24 1016.63 1016.95 1017.50 1017.84 1018.00 1018.26 1017.93 1017.98 1018.16 1018.08 1018.16 1018.66 1018.77 1018.58 1018.53 1018.79 1018.70 1018.63 1018.46 1019.23 1018.95 1018.50 1018.60 1018.41 1018.25 1018.18 1018.36 1018.27 1017.97 1017.82 1017.86 1017.59 1017.76 1018.88 1019.19 1019.41 1019.52 1019.61 1019.77 1020.03
1015.22 1015.63 1016.08 1016.37 1016.55 1017.23 1017.57 1017.77 1017.87 1017.83 1017.70 1017.71 1017.74 1018.10 1018.40 1018.58 1018.55 1018.60 1019.04 1018.59 1018.86 1019.01 1018.96 1018.65 1018.48 1018.39 1018.33 1017.85 1017.96 1018.02 1017.90 1017.90 1017.67 1017.83 1017.79 1017.56 1017.49 1018.45 1018.84 1019.08 1019.22 1019.36 1019.55
1015.11 1015.63 1016.01 1015.98 1016.21 1016.99 1017.32 1017.66 1017.85 1017.45 1017.40 1017.38 1017.50 1017.61 1017.73 1018.05 1018.31 1018.70 1018.61 1018.51 1018.33 1018.37 1018.18 1018.12 1017.97 1018.15 1018.19 1017.48 1017.37 1017.41 1017.21 1017.27 1017.14 1017.34 1017.41 1017.28 1017.02 1016.96 1017.69 1018.26 1018.68 1018.89 1019.04
1014.90 1015.33 1015.62 1015.90 1016.13 1016.45 1016.74 1016.99 1017.06 1017.12 1017.25 1017.06 1017.13 1017.19 1017.30 1017.90 1018.01 1018.26 1018.43 1018.21 1018.27 1017.96 1017.83 1017.84 1017.55 1017.51 1017.44 1017.50 1017.05 1016.78 1016.86 1016.82 1016.59 1016.35 1016.42 1016.67 1016.66 1016.74 1016.46 1017.09 1017.85 1018.33 1018.54
1014.52 1015.04 1015.52 1015.81 1016.25 1016.58 1016.48 1016.72 1016.96 1017.18 1017.16 1017.40 1017.34 1017.38 1017.34 1017.32 1017.46 1017.54 1017.39 1017.51 1017.64 1017.53 1017.47 1017.40 1017.15 1016.92 1016.83 1016.76 1016.55 1016.20 1016.00 1015.90 1015.82 1015.80 1015.79 1015.91 1015.99 1016.09 1016.11 1016.32 1016.79 1017.27 1017.83
1014.25 1014.81 1015.36 1015.87 1016.30 1016.46 1016.66 1016.81 1016.90 1016.76 1016.89 1016.79 1016.69 1016.59 1016.66 1016.77 1016.98 1017.19 1017.28 1017.02 1017.04 1016.93 1016.56 1016.61 1016.72 1016.71 1016.39 1016.16 1016.34 1015.81 1015.49 1015.47 1015.41 1015.27 1014.95 1015.05 1015.10 1015.33 1015.55 1015.70 1015.91 1015.93 1016.03
1014.01 1014.61 1015.18 1015.69 1016.02 1016.28 1016.21 1016.61 1016.74 1016.75 1016.30 1016.19 1016.58 1016.72 1016.65 1016.64 1016.73 1016.78 1016.78 1016.55 1016.42 1016.29 1016.35 1016.42 1016.35 1016.11 1015.69 1015.78 1015.81 1015.23 1014.41 1014.10 1013.66 1014.09 1014.34 1014.31 1014.40 1014.44 1014.60 1015.05 1015.20 1015.46 1015.57
1013.75 1014.44 1014.96 1015.51 1015.91 1016.14 1016.35 1016.36 1016.35 1016.25 1015.97 1015.56 1015.55 1015.81 1015.96 1016.65 1016.66 1016.71 1016.58 1016.39 1016.31 1016.43 1016.18 1015.96 1016.17 1016.03 1015.44 1015.14 1015.46 1015.36 1014.40 1013.38 1012.73 1012.31 1012.95 1013.51 1013.74 1013.86 1013.80 1013.90 1014.31 1014.69 1015.02
1013.63 1014.25 1014.96 1015.46 1015.90 1016.23 1016.39 1016.30 1016.47 1016.15 1016.04 1016.05 1016.23 1016.27 1016.66 1016.44 1016.48 1016.39 1016.28 1016.12 1015.97 1016.00 1016.04 1015.90 1015.75 1015.74 1015.59 1015.00 1014.89 1015.11 1014.68 1013.76 1013.49 1012.62 1012.19 1012.32 1013.00 1013.20 1013.16 1013.16 1013.19 1013.67 1014.18
1013.64 1014.11 1014.80 1015.45 1015.87 1016.17 1016.34 1016.43 1016.17 1016.22 1016.05 1016.34 1016.48 1016.70 1016.66 1016.34 1016.27 1016.13 1016.06 1015.99 1015.86 1015.65 1015.69 1015.89 1015.73 1015.47 1015.39 1015.17 1014.62 1014.37 1014.44 1014.30 1014.23 1013.84 1012.53 1011.97 1012.06 1012.19 1012.30 1012.55 1012.60 1012.52 1012.98
1013.49 1014.00 1014.54 1015.31 1015.78 1016.10 1016.24 1016.35 1016.44 1016.49 1016.56 1016.48 1016.49 1016.48 1016.06 1015.96 1015.86 1015.86 1016.15 1016.07 1015.85 1015.80 1015.49 1015.43 1015.36 1015.21 1014.87 1014.78 1014.55 1014.28 1014.13 1013.98 1013.61 1013.69 1013.21 1012.39 1011.62 1011.51 1011.37 1011.46 1011.73 1011.92 1012.08
Wind_Speed
7 9 3 6 9 11 14 16 16 17 17 17 17 17 15 14 13 11 12 13 12 11 11 10 10 10 12 11 11 11 11 11 11 11 13 13 13 12 11 9 8 14 10
13 11 7 9 11 12 15 15 15 15 16 16 16 16 14 13 13 13 12 12 12 10 11 11 11 10 10 10 10 10 10 10 9 9 11 11 12 12 10 6 7 13 10
12 13 12 9 12 14 15 15 15 16 15 15 15 15 13 13 13 13 13 12 11 10 10 9 9 9 8 7 8 8 8 6 6 7 8 7 10 11 12 11 12 11 12
12 12 14 11 13 15 14 14 14 16 15 14 14 14 13 12 12 11 12 12 10 10 9 8 8 7 6 6 5 4 5 6 6 7 9 5 11 9 11 12 11 10 11
11 11 14 11 13 15 15 16 15 14 14 14 13 12 12 11 12 12 11 11 9 9 7 6 7 6 4 4 3 2 1 4 4 10 4 4 1 12 11 10 11 10 9
13 12 13 12 13 14 14 15 15 14 13 13 12 12 12 11 10 11 9 9 8 7 6 5 5 4 2 2 1 1 2 3 4 2 3 7 6 12 9 8 9 8 11
14 12 13 11 12 12 12 14 15 14 13 12 11 11 10 10 8 8 7 6 6 5 4 4 3 2 2 1 1 2 3 2 7 1 4 4 11 10 9 10 10 9 9
14 14 13 11 12 11 13 12 13 13 13 12 11 10 9 8 7 5 4 4 3 3 2 2 2 2 1 3 4 4 5 6 3 5 3 2 11 9 10 9 11 9 8
13 12 12 13 12 12 11 12 13 12 11 10 9 8 6 6 6 5 4 2 1 2 3 4 5 3 3 4 7 6 5 6 8 3 7 5 12 9 8 10 11 10 8
11 10 7 8 11 10 10 10 11 12 11 9 8 7 6 6 5 6 3 6 3 5 6 6 9 6 5 4 5 7 7 8 10 2 6 7 11 9 9 11 10 11 10
10 11 12 11 9 8 9 9 9 8 9 8 8 7 7 8 8 10 4 2 4 6 7 7 9 8 5 9 5 4 8 6 3 2 3 11 9 9 9 10 10 11 11
13 11 9 9 10 9 7 9 7 8 8 8 8 7 8 5 4 8 6 2 6 8 8 8 6 8 9 7 4 9 6 5 5 2 4 11 9 9 8 11 12 11 12
11 10 10 7 9 9 6 6 5 5 5 6 7 7 7 4 6 5 5 5 5 8 7 8 6 7 4 4 6 5 5 5 5 1 7 7 8 9 8 10 11 10 11
12 10 9 9 7 7 5 6 6 5 5 5 6 7 6 5 5 5 5 5 4 5 5 6 4 6 7 6 7 7 6 5 4 3 2 6 9 10 9 11 11 10 11
12 11 10 9 8 8 7 5 5 4 5 6 5 6 7 7 5 6 6 6 6 6 7 5 6 5 6 7 7 7 8 6 6 5 4 12 11 12 11 10 11 12 12
11 11 10 11 10 9 7 6 5 5 5 6 6 6 7 8 6 7 5 7 6 7 6 8 6 7 7 6 7 8 8 8 7 6 6 6 11 13 14 13 12 13 14
10 10 10 10 10 9 9 7 7 7 6 7 7 8 10 9 10 8 8 8 5 6 9 8 8 7 8 8 8 9 8 10 9 9 8 7 8 17 16 15 14 13 14
7 8 8 7 8 9 8 6 5 8 7 7 7 8 10 11 11 6 7 8 8 7 8 8 8 7 8 10 8 8 7 9 11 11 10 9 8 9 17 17 16 16 17
8 7 8 7 8 8 9 8 8 8 7 8 8 7 10 8 9 7 6 8 8 9 9 9 10 9 8 8 9 9 9 9 11 11 13 11 11 9 8 18 19 17 19
7 8 6 6 6 6 4 5 4 6 5 6 6 8 11 9 11 8 8 10 9 10 10 10 11 10 10 10 10 10 10 10 10 11 11 11 12 12 12 11 11 12 20
7 7 6 6 5 4 4 4 5 5 5 6 7 8 9 6 7 7 6 9 9 10 11 10 10 12 11 11 9 11 11 13 13 13 12 11 12 13 12 11 9 9 11
7 6 6 6 6 6 4 1 3 3 4 5 3 4 4 5 5 6 7 7 8 9 10 11 11 11 11 8 10 11 10 11 12 14 13 12 14 11 13 14 13 13 11
7 7 6 5 5 4 2 3 3 5 6 5 2 5 4 6 6 6 8 9 9 8 10 10 9 12 11 10 13 9 7 11 11 10 15 13 14 12 12 13 14 14 14
8 7 7 7 6 5 3 1 3 5 5 6 5 5 7 6 7 7 7 8 9 8 9 9 7 9 10 11 9 10 16 14 7 8 7 9 12 14 14 11 12 14 15
10 10 10 8 6 5 3 3 4 3 3 4 5 6 6 5 6 7 6 7 8 7 7 9 8 10 9 10 10 8 10 12 13 12 12 8 9 10 11 12 11 11 14
10 10 9 9 6 4 2 1 2 2 3 5 4 6 4 4 4 2 6 7 8 8 9 9 10 11 11 10 10 11 10 7 10 9 12 15 14 10 10 11 11 11 11
Wind_Direction
173 132 185 152 119 110 112 117 112 114 116 117 116 119 117 119 114 106 108 111 115 112 114 105 105 102 116 107 112 111 114 117 120 125 123 119 118 117 121 120 149 107 109
150 138 139 135 125 124 122 124 117 119 122 120 118 125 124 123 116 113 112 109 110 111 110 108 110 107 115 117 119 119 121 130 137 134 125 120 122 123 122 104 64 102 113
140 129 147 130 130 130 130 130 126 125 127 124 123 126 131 125 120 121 114 109 113 111 104 102 106 110 114 119 122 123 124 136 131 143 165 167 118 129 121 105 105 113 108
141 145 134 133 132 130 129 132 131 134 132 127 126 131 129 124 119 113 106 106 104 101 100 101 106 112 120 119 115 119 130 140 140 178 218 107 124 124 121 117 117 119 117
133 132 116 129 126 126 128 130 135 138 136 130 128 127 123 126 120 116 113 107 103 98 98 103 101 105 119 124 125 119 130 147 171 227 137 86 236 115 124 130 137 144 163
136 137 129 133 129 137 136 137 141 140 137 133 132 130 129 128 120 115 114 108 102 101 100 88 82 73 67 88 103 177 204 188 218 347 326 116 65 120 141 140 113 111 123
127 132 138 135 131 125 124 137 141 140 141 134 132 132 132 127 119 113 107 106 109 104 86 75 74 79 31 358 332 293 279 253 299 346 258 122 103 139 149 137 135 139 139
131 134 133 130 130 133 140 145 136 137 141 144 143 140 134 131 131 129 126 120 107 85 52 15 346 339 293 291 272 283 299 288 242 269 219 172 116 152 158 148 147 149 153
137 124 139 137 129 134 140 145 139 142 146 147 145 141 142 146 152 157 158 181 246 313 312 314 298 304 291 277 278 293 299 288 275 105 266 200 144 168 163 160 156 155 161
141 142 140 145 150 158 149 140 146 153 156 157 158 158 166 177 186 199 208 201 260 288 298 305 310 316 297 282 281 288 297 275 258 82 249 100 144 172 164 175 171 165 166
161 158 162 161 160 158 155 145 162 166 172 181 189 190 198 233 190 191 189 79 269 282 292 297 303 309 302 246 214 281 281 258 258 245 178 117 158 180 168 183 182 176 180
161 170 166 174 154 169 166 152 179 181 197 205 207 207 234 253 276 324 327 271 269 269 275 267 273 281 248 327 195 193 249 320 279 213 138 146 177 190 185 189 190 193 188
172 177 167 172 163 186 159 186 183 190 207 198 226 230 240 270 236 239 270 239 253 199 264 215 218 240 351 281 272 269 280 253 266 6 88 136 184 199 208 196 194 196 210
183 185 176 174 185 194 169 201 193 207 210 230 212 226 251 245 245 259 288 309 273 276 302 273 292 315 284 269 266 283 267 267 260 210 144 166 198 205 215 199 200 210 219
189 188 185 188 189 196 205 201 245 227 206 244 230 229 261 267 260 262 319 283 295 288 269 257 266 282 296 275 263 258 262 247 247 254 247 156 197 208 220 224 212 211 221
197 195 196 200 198 202 218 214 243 227 267 237 258 254 234 260 268 278 247 268 273 269 305 296 296 293 285 288 259 253 260 260 236 262 257 177 190 206 218 226 226 218 218
193 194 204 211 208 205 218 221 227 241 238 253 252 242 255 256 249 260 264 285 281 291 284 260 267 257 262 269 252 273 262 244 252 241 247 254 198 200 211 221 226 222 220
210 195 210 214 209 204 223 222 240 251 252 254 257 257 244 246 256 264 263 266 269 259 267 265 262 257 255 254 257 265 258 247 243 242 249 254 243 255 189 207 218 222 220
193 188 206 203 217 212 210 231 234 242 244 250 250 266 284 283 265 253 237 250 257 262 272 266 261 252 260 266 265 252 245 251 251 247 242 240 241 245 252 183 204 217 224
197 196 202 200 199 208 230 226 249 257 275 281 269 262 267 271 271 261 251 252 252 252 252 251 258 254 252 257 263 264 254 247 245 243 241 238 234 240 235 240 198 211 218
191 182 186 181 176 219 219 240 244 262 269 280 293 278 277 273 257 260 259 253 248 256 266 266 252 246 254 241 255 249 246 242 243 249 237 235 238 232 236 237 232 241 209
175 174 171 181 183 209 217 253 285 291 284 303 272 270 291 299 290 277 280 280 278 281 270 267 262 259 251 236 235 248 250 244 236 230 235 236 233 232 230 229 237 234 245
172 167 160 173 191 214 216 185 206 234 224 253 301 311 10 302 293 283 279 275 277 266 275 271 263 254 259 245 225 245 255 244 256 231 214 230 234 232 236 232 230 229 233
164 158 146 149 143 140 179 159 6 308 309 1 301 331 303 295 306 299 289 284 280 287 281 276 271 259 259 255 241 226 254 274 271 266 227 218 228 233 235 234 230 225 231
158 151 143 137 137 140 136 343 293 313 346 337 325 320 306 295 303 313 318 309 297 283 279 271 276 268 260 264 261 247 247 251 251 258 270 228 213 222 227 221 238 233 224
160 153 145 147 149 137 140 106 29 3 339 318 342 301 308 297 305 329 328 315 311 303 293 294 288 280 274 262 262 261 245 233 233 232 240 252 263 254 233 221 228 231 239